| time (UTC) | temp C | wind direction | speed KPH | gust KPH | rain 1hr cm | rain 24hr cm | rain mn cm | humidity % | barometer mb |
| 20260507061047 | 10 | 272 | 0.0 | 0.0 | 0.00 | 0.00 | 0.00 | 74 | 1020.0 |
| 20260507060547 | 10 | 272 | 0.0 | 0.0 | 0.00 | 0.00 | 0.00 | 74 | 1019.9 |
| 20260507060046 | 10 | 272 | 0.0 | 0.0 | 0.00 | 0.00 | 0.00 | 70 | 1019.8 |
| 20260507055545 | 10 | 272 | 0.0 | 0.0 | 0.00 | 0.00 | 0.00 | 71 | 1019.9 |
| 20260507055045 | 10 | 272 | 0.0 | 0.0 | 0.00 | 0.00 | 0.00 | 69 | 1019.9 |
| 20260507054543 | 10 | 272 | 0.0 | 0.0 | 0.00 | 0.00 | 0.00 | 69 | 1019.8 |
| 20260507054042 | 10 | 272 | 0.0 | 0.0 | 0.00 | 0.00 | 0.00 | 66 | 1019.7 |
| 20260507053543 | 9 | 272 | 0.0 | 0.0 | 0.00 | 0.00 | 0.00 | 65 | 1019.7 |
| 20260507053041 | 9 | 272 | 0.0 | 0.0 | 0.00 | 0.00 | 0.00 | 63 | 1019.7 |
| 20260507052540 | 9 | 272 | 0.0 | 0.0 | 0.00 | 0.00 | 0.00 | 59 | 1019.4 |
| 20260507052041 | 9 | 272 | 0.0 | 0.0 | 0.00 | 0.00 | 0.00 | 54 | 1019.4 |
| 20260507051540 | 9 | 259 | 0.0 | 0.0 | 0.00 | 0.00 | 0.00 | 55 | 1019.4 |
| 20260507051039 | 9 | 293 | 0.0 | 0.0 | 0.00 | 0.00 | 0.00 | 57 | 1019.4 |
| 20260507050539 | 9 | 293 | 0.0 | 0.0 | 0.00 | 0.00 | 0.00 | 59 | 1019.3 |
| 20260507050039 | 9 | 292 | 0.0 | 0.0 | 0.00 | 0.00 | 0.00 | 60 | 1019.3 |
| 20260507045537 | 9 | 293 | 0.0 | 0.0 | 0.00 | 0.00 | 0.00 | 59 | 1019.4 |
| 20260507045037 | 9 | 293 | 0.0 | 0.0 | 0.00 | 0.00 | 0.00 | 57 | 1019.3 |
| 20260507044538 | 9 | 292 | 0.0 | 0.0 | 0.00 | 0.00 | 0.00 | 59 | 1019.2 |
| 20260507044035 | 8 | 296 | 0.0 | 0.0 | 0.00 | 0.00 | 0.00 | 58 | 1019.1 |
| 20260507043534 | 8 | 288 | 0.0 | 0.0 | 0.00 | 0.00 | 0.00 | 61 | 1019.2 |
| 20260507043035 | 8 | 348 | 0.0 | 0.0 | 0.00 | 0.00 | 0.00 | 60 | 1019.1 |
| 20260507042535 | 8 | 313 | 0.0 | 0.0 | 0.00 | 0.00 | 0.00 | 60 | 1019.1 |
| 20260507042035 | 8 | 329 | 0.0 | 0.0 | 0.00 | 0.00 | 0.00 | 57 | 1019.1 |
| 20260507041535 | 8 | 327 | 0.0 | 0.0 | 0.00 | 0.00 | 0.00 | 53 | 1019.1 |
| 20260507041034 | 8 | 290 | 0.0 | 0.0 | 0.00 | 0.00 | 0.00 | 48 | 1018.9 |
| 20260507040534 | 8 | 290 | 0.0 | 0.0 | 0.00 | 0.00 | 0.00 | 47 | 1018.9 |
| 20260507040035 | 8 | 114 | 0.0 | 0.0 | 0.00 | 0.00 | 0.00 | 48 | 1018.8 |
| 20260507035534 | 8 | 114 | 0.0 | 0.0 | 0.00 | 0.00 | 0.00 | 49 | 1018.7 |
| 20260507035034 | 8 | 114 | 0.0 | 0.0 | 0.00 | 0.00 | 0.00 | 50 | 1018.8 |
| 20260507034534 | 8 | 114 | 0.0 | 0.0 | 0.00 | 0.00 | 0.00 | 51 | 1018.6 |
| 20260507034034 | 8 | 114 | 0.0 | 0.0 | 0.00 | 0.00 | 0.00 | 55 | 1018.6 |
| 20260507033535 | 8 | 120 | 0.0 | 0.0 | 0.00 | 0.00 | 0.00 | 56 | 1018.7 |
| 20260507033035 | 8 | 283 | 0.0 | 0.0 | 0.00 | 0.00 | 0.00 | 50 | 1018.7 |
| 20260507032534 | 8 | 282 | 0.0 | 0.0 | 0.00 | 0.00 | 0.00 | 51 | 1018.6 |
| 20260507032034 | 8 | 278 | 0.0 | 0.0 | 0.00 | 0.00 | 0.00 | 55 | 1018.6 |
| 20260507031535 | 8 | 312 | 0.0 | 0.0 | 0.00 | 0.00 | 0.00 | 53 | 1018.6 |
| 20260507031034 | 8 | 305 | 0.0 | 0.0 | 0.00 | 0.00 | 0.00 | 56 | 1018.7 |
| 20260507030535 | 8 | 347 | 0.0 | 0.0 | 0.00 | 0.00 | 0.00 | 56 | 1018.6 |
| 20260507030034 | 8 | 312 | 0.0 | 0.0 | 0.00 | 0.00 | 0.00 | 58 | 1018.6 |
| 20260507025534 | 8 | 276 | 0.0 | 0.0 | 0.00 | 0.00 | 0.00 | 61 | 1018.6 |
| 20260507025035 | 8 | 276 | 0.0 | 0.0 | 0.00 | 0.00 | 0.00 | 58 | 1018.5 |
| 20260507024534 | 8 | 276 | 0.0 | 0.0 | 0.00 | 0.00 | 0.00 | 58 | 1018.5 |
| 20260507024034 | 8 | 275 | 0.0 | 0.0 | 0.00 | 0.00 | 0.00 | 57 | 1018.6 |
| 20260507023534 | 8 | 305 | 0.0 | 1.6 | 0.00 | 0.00 | 0.00 | 56 | 1018.6 |
| 20260507023034 | 8 | 305 | 0.0 | 1.6 | 0.00 | 0.00 | 0.00 | 58 | 1018.5 |
| 20260507022534 | 8 | 110 | 0.0 | 0.0 | 0.00 | 0.00 | 0.00 | 65 | 1018.5 |
| 20260507022036 | 8 | 110 | 0.0 | 0.0 | 0.00 | 0.00 | 0.00 | 70 | 1018.6 |
| 20260507021534 | 8 | 110 | 0.0 | 0.0 | 0.00 | 0.00 | 0.00 | 72 | 1018.5 |
| 20260507021035 | 9 | 296 | 0.0 | 0.0 | 0.00 | 0.00 | 0.00 | 71 | 1018.4 |
| 20260507020535 | 9 | 295 | 0.0 | 0.0 | 0.00 | 0.00 | 0.00 | 69 | 1018.3 |
| 20260507020034 | 8 | 295 | 0.0 | 0.0 | 0.00 | 0.00 | 0.00 | 68 | 1018.1 |
| 20260507015534 | 8 | 292 | 0.0 | 1.6 | 0.00 | 0.00 | 0.00 | 69 | 1018.3 |
| 20260507015034 | 8 | 292 | 0.0 | 1.6 | 0.00 | 0.00 | 0.00 | 69 | 1018.3 |
| 20260507014534 | 8 | 288 | 0.0 | 1.6 | 0.00 | 0.00 | 0.00 | 68 | 1018.1 |
| 20260507014034 | 8 | 288 | 0.0 | 1.6 | 0.00 | 0.00 | 0.00 | 68 | 1018.1 |
| 20260507013534 | 8 | 271 | 0.0 | 1.6 | 0.00 | 0.00 | 0.00 | 68 | 1018.0 |
| 20260507013034 | 9 | 279 | 0.0 | 1.6 | 0.00 | 0.00 | 0.00 | 68 | 1018.1 |
| 20260507012534 | 9 | 323 | 0.0 | 1.6 | 0.00 | 0.00 | 0.00 | 67 | 1017.9 |
| 20260507012034 | 9 | 353 | 0.0 | 1.6 | 0.00 | 0.00 | 0.00 | 65 | 1017.8 |
| 20260507011534 | 9 | 31 | 0.0 | 1.6 | 0.00 | 0.00 | 0.00 | 66 | 1017.9 |
| 20260507011035 | 9 | 299 | 0.0 | 3.2 | 0.00 | 0.00 | 0.00 | 67 | 1017.8 |
| 20260507010534 | 8 | 313 | 0.0 | 3.2 | 0.00 | 0.00 | 0.00 | 69 | 1017.9 |
| 20260507010035 | 8 | 331 | 0.0 | 4.8 | 0.00 | 0.00 | 0.00 | 68 | 1017.8 |
| 20260507005535 | 8 | 345 | 0.0 | 6.4 | 0.00 | 0.00 | 0.00 | 68 | 1017.9 |
| 20260507005035 | 8 | 302 | 3.2 | 6.4 | 0.00 | 0.00 | 0.00 | 65 | 1017.9 |
| 20260507004535 | 8 | 295 | 3.2 | 6.4 | 0.00 | 0.00 | 0.00 | 62 | 1017.9 |
| 20260507004035 | 8 | 296 | 0.0 | 4.8 | 0.00 | 0.00 | 0.00 | 62 | 1017.9 |
| 20260507003534 | 8 | 305 | 3.2 | 4.8 | 0.00 | 0.00 | 0.00 | 62 | 1017.9 |
| 20260507003034 | 8 | 289 | 3.2 | 8.0 | 0.00 | 0.00 | 0.00 | 63 | 1018.0 |
| 20260507002534 | 8 | 282 | 4.8 | 8.0 | 0.00 | 0.00 | 0.00 | 63 | 1018.0 |
| 20260507002034 | 8 | 292 | 3.2 | 6.4 | 0.00 | 0.00 | 0.00 | 61 | 1018.0 |
| 20260507001534 | 8 | 285 | 3.2 | 4.8 | 0.00 | 0.00 | 0.00 | 68 | 1017.9 |
| 20260507001035 | 8 | 317 | 0.0 | 8.0 | 0.00 | 0.00 | 0.00 | 66 | 1017.9 |
| 20260507000534 | 8 | 296 | 3.2 | 8.0 | 0.00 | 0.00 | 0.00 | 70 | 1017.9 |
| 20260507000034 | 8 | 272 | 4.8 | 6.4 | 0.00 | 0.00 | 0.00 | 63 | 1017.8 |
| 20260506235534 | 8 | 302 | 0.0 | 3.2 | 0.00 | 0.00 | 0.00 | 68 | 1017.8 |
| 20260506235035 | 9 | 296 | 0.0 | 3.2 | 0.00 | 0.00 | 0.00 | 69 | 1017.9 |
| 20260506234534 | 9 | 298 | 0.0 | 3.2 | 0.00 | 0.00 | 0.00 | 73 | 1017.9 |
| 20260506234034 | 9 | 0 | 0.0 | 0.0 | 0.00 | 0.00 | 0.00 | 73 | 1017.8 |
| 20260506233534 | 9 | 285 | 0.0 | 0.0 | 0.00 | 0.00 | 0.00 | 72 | 1017.8 |
| 20260506233034 | 9 | 283 | 0.0 | 1.6 | 0.00 | 0.00 | 0.00 | 72 | 1017.8 |
| 20260506232535 | 9 | 281 | 0.0 | 1.6 | 0.00 | 0.00 | 0.00 | 72 | 1017.8 |
| 20260506232034 | 9 | 279 | 0.0 | 4.8 | 0.00 | 0.00 | 0.00 | 72 | 1017.9 |
| 20260506231534 | 9 | 310 | 0.0 | 4.8 | 0.00 | 0.00 | 0.00 | 68 | 1017.9 |
| 20260506231035 | 10 | 300 | 3.2 | 4.8 | 0.00 | 0.00 | 0.00 | 72 | 1017.9 |
| 20260506230534 | 10 | 313 | 3.2 | 4.8 | 0.00 | 0.00 | 0.00 | 72 | 1017.9 |
| 20260506230034 | 10 | 312 | 0.0 | 4.8 | 0.00 | 0.00 | 0.00 | 72 | 1017.8 |
| 20260506225535 | 9 | 345 | 1.6 | 4.8 | 0.00 | 0.00 | 0.00 | 70 | 1017.8 |
| 20260506225034 | 9 | 306 | 0.0 | 4.8 | 0.00 | 0.00 | 0.00 | 66 | 1017.8 |
| 20260506224534 | 9 | 310 | 1.6 | 4.8 | 0.00 | 0.00 | 0.00 | 72 | 1017.8 |
| 20260506224035 | 10 | 345 | 0.0 | 3.2 | 0.00 | 0.00 | 0.00 | 71 | 1017.7 |
| 20260506223534 | 10 | 295 | 0.0 | 3.2 | 0.00 | 0.00 | 0.00 | 72 | 1017.8 |
| 20260506223034 | 10 | 319 | 0.0 | 4.8 | 0.00 | 0.00 | 0.00 | 73 | 1017.7 |
| 20260506222533 | 10 | 300 | 1.6 | 4.8 | 0.00 | 0.00 | 0.00 | 73 | 1017.7 |
| 20260506222035 | 10 | 278 | 1.6 | 4.8 | 0.00 | 0.00 | 0.00 | 72 | 1017.6 |
| 20260506221534 | 10 | 306 | 3.2 | 4.8 | 0.00 | 0.00 | 0.00 | 70 | 1017.5 |
| 20260506221034 | 10 | 266 | 0.0 | 4.8 | 0.00 | 0.00 | 0.00 | 72 | 1017.4 |
| 20260506220533 | 10 | 309 | 0.0 | 4.8 | 0.00 | 0.00 | 0.00 | 72 | 1017.4 |
| 20260506220034 | 10 | 358 | 1.6 | 4.8 | 0.00 | 0.00 | 0.00 | 72 | 1017.2 |
| 20260506215534 | 10 | 324 | 1.6 | 6.4 | 0.00 | 0.00 | 0.00 | 73 | 1017.1 |
| 20260506215034 | 10 | 306 | 3.2 | 6.4 | 0.00 | 0.00 | 0.00 | 73 | 1017.1 |
| 20260506214535 | 10 | 299 | 1.6 | 6.4 | 0.00 | 0.00 | 0.00 | 73 | 1017.2 |
| 20260506214034 | 10 | 283 | 1.6 | 4.8 | 0.00 | 0.00 | 0.00 | 73 | 1017.1 |
| 20260506213535 | 10 | 302 | 1.6 | 11.3 | 0.00 | 0.00 | 0.00 | 74 | 1017.1 |
| 20260506213034 | 11 | 353 | 3.2 | 16.1 | 0.00 | 0.00 | 0.00 | 74 | 1017.0 |
| 20260506212534 | 11 | 272 | 9.7 | 16.1 | 0.00 | 0.00 | 0.00 | 74 | 1016.9 |
| 20260506212034 | 11 | 296 | 6.4 | 19.3 | 0.00 | 0.00 | 0.00 | 74 | 1016.7 |
| 20260506211534 | 11 | 290 | 14.5 | 19.3 | 0.00 | 0.00 | 0.00 | 74 | 1016.7 |
| 20260506211035 | 11 | 278 | 6.4 | 17.7 | 0.00 | 0.00 | 0.00 | 74 | 1016.7 |
| 20260506210535 | 11 | 276 | 6.4 | 17.7 | 0.00 | 0.00 | 0.00 | 74 | 1016.5 |
| 20260506210034 | 11 | 289 | 4.8 | 17.7 | 0.00 | 0.00 | 0.00 | 74 | 1016.5 |
| 20260506205534 | 11 | 281 | 9.7 | 16.1 | 0.00 | 0.00 | 0.00 | 74 | 1016.4 |
| 20260506205034 | 11 | 279 | 6.4 | 16.1 | 0.00 | 0.00 | 0.00 | 74 | 1016.3 |
| 20260506204534 | 11 | 283 | 11.3 | 19.3 | 0.00 | 0.00 | 0.00 | 74 | 1016.3 |
| 20260506204035 | 12 | 276 | 11.3 | 19.3 | 0.00 | 0.00 | 0.00 | 74 | 1016.3 |
| 20260506203534 | 12 | 271 | 9.7 | 19.3 | 0.00 | 0.00 | 0.00 | 74 | 1016.1 |
| 20260506203034 | 12 | 290 | 8.0 | 19.3 | 0.00 | 0.00 | 0.00 | 74 | 1016.2 |
| 20260506202534 | 12 | 255 | 8.0 | 20.9 | 0.00 | 0.00 | 0.00 | 74 | 1016.1 |
| 20260506202034 | 12 | 296 | 16.1 | 20.9 | 0.00 | 0.00 | 0.00 | 74 | 1016.0 |
| 20260506201535 | 12 | 309 | 11.3 | 17.7 | 0.00 | 0.00 | 0.00 | 73 | 1015.8 |
| 20260506201035 | 12 | 282 | 8.0 | 16.1 | 0.00 | 0.00 | 0.00 | 73 | 1015.7 |
| 20260506200534 | 12 | 282 | 11.3 | 20.9 | 0.00 | 0.00 | 0.00 | 72 | 1015.8 |
| 20260506200035 | 12 | 266 | 12.9 | 20.9 | 0.00 | 0.00 | 0.00 | 72 | 1015.9 |
| 20260506195535 | 13 | 272 | 11.3 | 20.9 | 0.00 | 0.00 | 0.00 | 71 | 1015.8 |
| 20260506195034 | 13 | 276 | 12.9 | 25.7 | 0.00 | 0.00 | 0.00 | 70 | 1015.8 |
| 20260506194534 | 13 | 264 | 12.9 | 25.7 | 0.00 | 0.00 | 0.00 | 69 | 1015.6 |
| 20260506194034 | 13 | 269 | 14.5 | 25.7 | 0.00 | 0.00 | 0.00 | 68 | 1015.6 |
| 20260506193534 | 13 | 281 | 16.1 | 22.5 | 0.00 | 0.00 | 0.00 | 66 | 1015.4 |
| 20260506193034 | 14 | 314 | 8.0 | 16.1 | 0.00 | 0.00 | 0.00 | 65 | 1015.4 |
| 20260506192534 | 14 | 282 | 6.4 | 14.5 | 0.00 | 0.00 | 0.00 | 65 | 1015.3 |
| 20260506192034 | 14 | 264 | 3.2 | 19.3 | 0.00 | 0.00 | 0.00 | 64 | 1015.3 |
| 20260506191534 | 14 | 17 | 6.4 | 25.7 | 0.00 | 0.00 | 0.00 | 64 | 1015.1 |
| 20260506191034 | 14 | 298 | 4.8 | 25.7 | 0.00 | 0.00 | 0.00 | 64 | 1014.8 |
| 20260506190535 | 14 | 259 | 14.5 | 24.1 | 0.00 | 0.00 | 0.00 | 64 | 1014.8 |
| 20260506190035 | 14 | 296 | 4.8 | 19.3 | 0.00 | 0.00 | 0.00 | 63 | 1014.5 |
| 20260506185534 | 15 | 282 | 9.7 | 16.1 | 0.00 | 0.00 | 0.00 | 62 | 1014.3 |
| 20260506185034 | 15 | 302 | 8.0 | 14.5 | 0.00 | 0.00 | 0.00 | 62 | 1014.3 |
| 20260506184534 | 15 | 290 | 8.0 | 16.1 | 0.00 | 0.00 | 0.00 | 61 | 1014.0 |
| 20260506184034 | 15 | 271 | 9.7 | 16.1 | 0.00 | 0.00 | 0.00 | 60 | 1013.7 |
| 20260506183535 | 15 | 306 | 3.2 | 24.1 | 0.00 | 0.00 | 0.00 | 60 | 1013.6 |
| 20260506183034 | 15 | 258 | 6.4 | 30.6 | 0.00 | 0.00 | 0.00 | 59 | 1013.6 |
| 20260506182534 | 16 | 285 | 17.7 | 30.6 | 0.00 | 0.00 | 0.00 | 58 | 1013.4 |
| 20260506182034 | 16 | 288 | 12.9 | 25.7 | 0.00 | 0.00 | 0.00 | 57 | 1013.2 |
| 20260506181534 | 16 | 293 | 11.3 | 25.7 | 0.00 | 0.00 | 0.00 | 55 | 1013.2 |
| 20260506181034 | 16 | 292 | 12.9 | 20.9 | 0.00 | 0.00 | 0.00 | 53 | 1013.1 |
| 20260506180535 | 17 | 282 | 12.9 | 19.3 | 0.00 | 0.00 | 0.00 | 51 | 1013.0 |
| 20260506180035 | 17 | 283 | 9.7 | 17.7 | 0.00 | 0.00 | 0.00 | 50 | 1012.9 |
| 20260506175535 | 17 | 266 | 4.8 | 17.7 | 0.00 | 0.00 | 0.00 | 49 | 1012.8 |
| 20260506175035 | 17 | 299 | 9.7 | 19.3 | 0.00 | 0.00 | 0.00 | 46 | 1012.5 |
| 20260506174534 | 17 | 293 | 9.7 | 19.3 | 0.00 | 0.00 | 0.00 | 47 | 1012.4 |
| 20260506174034 | 17 | 290 | 9.7 | 19.3 | 0.00 | 0.00 | 0.00 | 46 | 1012.3 |
| 20260506173535 | 17 | 279 | 9.7 | 19.3 | 0.00 | 0.00 | 0.00 | 46 | 1012.2 |
| 20260506173034 | 17 | 279 | 14.5 | 19.3 | 0.00 | 0.00 | 0.00 | 44 | 1012.1 |
| 20260506172534 | 18 | 281 | 12.9 | 19.3 | 0.00 | 0.00 | 0.00 | 45 | 1012.1 |
| 20260506172033 | 18 | 283 | 9.7 | 20.9 | 0.00 | 0.00 | 0.00 | 44 | 1011.9 |
| 20260506171534 | 18 | 285 | 14.5 | 20.9 | 0.00 | 0.00 | 0.00 | 44 | 1011.9 |
| 20260506171034 | 18 | 265 | 16.1 | 19.3 | 0.00 | 0.00 | 0.00 | 43 | 1011.7 |
| 20260506170534 | 18 | 281 | 9.7 | 14.5 | 0.00 | 0.00 | 0.00 | 43 | 1011.6 |
| 20260506170034 | 18 | 290 | 8.0 | 11.3 | 0.00 | 0.00 | 0.00 | 41 | 1011.5 |
| 20260506165533 | 18 | 296 | 6.4 | 14.5 | 0.00 | 0.00 | 0.00 | 42 | 1011.5 |
| 20260506165033 | 19 | 288 | 4.8 | 14.5 | 0.00 | 0.00 | 0.00 | 42 | 1011.3 |
| 20260506164533 | 19 | 271 | 6.4 | 17.7 | 0.00 | 0.00 | 0.00 | 40 | 1011.3 |
| 20260506164033 | 19 | 271 | 12.9 | 17.7 | 0.00 | 0.00 | 0.00 | 37 | 1011.2 |
| 20260506163532 | 19 | 223 | 8.0 | 17.7 | 0.00 | 0.00 | 0.00 | 37 | 1011.2 |
| 20260506163032 | 20 | 281 | 4.8 | 11.3 | 0.00 | 0.00 | 0.00 | 37 | 1011.2 |
| 20260506162533 | 20 | 102 | 1.6 | 11.3 | 0.00 | 0.00 | 0.00 | 38 | 1011.1 |
| 20260506162032 | 19 | 316 | 3.2 | 16.1 | 0.00 | 0.00 | 0.00 | 38 | 1011.1 |
| 20260506161533 | 20 | 305 | 9.7 | 16.1 | 0.00 | 0.00 | 0.00 | 40 | 1011.2 |
| 20260506161032 | 20 | 245 | 0.0 | 4.8 | 0.00 | 0.00 | 0.00 | 44 | 1011.1 |
| 20260506160532 | 20 | 302 | 1.6 | 4.8 | 0.00 | 0.00 | 0.00 | 45 | 1011.1 |
| 20260506160031 | 20 | 34 | 0.0 | 4.8 | 0.00 | 0.00 | 0.00 | 42 | 1011.1 |
| 20260506155532 | 20 | 283 | 0.0 | 6.4 | 0.00 | 0.00 | 0.00 | 41 | 1011.1 |
| 20260506155032 | 20 | 169 | 0.0 | 8.0 | 0.00 | 0.00 | 0.00 | 40 | 1011.1 |
| 20260506154531 | 20 | 83 | 1.6 | 8.0 | 0.00 | 0.00 | 0.00 | 41 | 1011.0 |
| 20260506154032 | 19 | 99 | 3.2 | 11.3 | 0.00 | 0.00 | 0.00 | 44 | 1011.0 |
| 20260506153531 | 19 | 117 | 3.2 | 17.7 | 0.00 | 0.00 | 0.00 | 45 | 1010.9 |
| 20260506153031 | 19 | 127 | 12.9 | 17.7 | 0.00 | 0.00 | 0.00 | 43 | 1010.9 |
| 20260506152531 | 19 | 47 | 6.4 | 24.1 | 0.00 | 0.00 | 0.00 | 42 | 1010.8 |
| 20260506152032 | 19 | 90 | 12.9 | 24.1 | 0.00 | 0.00 | 0.00 | 42 | 1010.8 |
| 20260506151531 | 19 | 107 | 16.1 | 22.5 | 0.00 | 0.00 | 0.00 | 41 | 1010.7 |
| 20260506151031 | 20 | 109 | 12.9 | 22.5 | 0.00 | 0.00 | 0.00 | 42 | 1010.8 |
| 20260506150531 | 20 | 86 | 9.7 | 16.1 | 0.00 | 0.00 | 0.00 | 42 | 1010.9 |
| 20260506150031 | 20 | 93 | 9.7 | 17.7 | 0.00 | 0.00 | 0.00 | 43 | 1010.8 |
| 20260506145530 | 20 | 109 | 11.3 | 17.7 | 0.00 | 0.00 | 0.00 | 44 | 1010.9 |
| 20260506145031 | 20 | 130 | 9.7 | 14.5 | 0.00 | 0.00 | 0.00 | 42 | 1011.0 |
| 20260506144530 | 21 | 87 | 6.4 | 11.3 | 0.00 | 0.00 | 0.00 | 38 | 1011.0 |
| 20260506144029 | 21 | 131 | 3.2 | 8.0 | 0.00 | 0.00 | 0.00 | 38 | 1010.9 |
| 20260506143530 | 21 | 93 | 4.8 | 9.7 | 0.00 | 0.00 | 0.00 | 40 | 1011.0 |
| 20260506143030 | 21 | 99 | 3.2 | 14.5 | 0.00 | 0.00 | 0.00 | 39 | 1011.0 |
| 20260506142530 | 21 | 65 | 4.8 | 14.5 | 0.00 | 0.00 | 0.00 | 38 | 1011.1 |
| 20260506142030 | 21 | 116 | 4.8 | 14.5 | 0.00 | 0.00 | 0.00 | 39 | 1011.1 |
| 20260506141530 | 21 | 128 | 6.4 | 11.3 | 0.00 | 0.00 | 0.00 | 40 | 1011.2 |
| 20260506141030 | 21 | 96 | 3.2 | 14.5 | 0.00 | 0.00 | 0.00 | 38 | 1011.3 |
| 20260506140530 | 21 | 128 | 8.0 | 14.5 | 0.00 | 0.00 | 0.00 | 41 | 1011.5 |
| 20260506140029 | 21 | 121 | 4.8 | 9.7 | 0.00 | 0.00 | 0.00 | 39 | 1011.5 |
| 20260506135529 | 21 | 157 | 6.4 | 11.3 | 0.00 | 0.00 | 0.00 | 38 | 1011.5 |
| 20260506135030 | 21 | 127 | 6.4 | 11.3 | 0.00 | 0.00 | 0.00 | 40 | 1011.5 |
| 20260506134530 | 21 | 93 | 6.4 | 11.3 | 0.00 | 0.00 | 0.00 | 40 | 1011.5 |
| 20260506134030 | 21 | 109 | 6.4 | 11.3 | 0.00 | 0.00 | 0.00 | 41 | 1011.5 |
| 20260506133529 | 21 | 80 | 4.8 | 16.1 | 0.00 | 0.00 | 0.00 | 40 | 1011.3 |
| 20260506133029 | 21 | 109 | 9.7 | 16.1 | 0.00 | 0.00 | 0.00 | 41 | 1011.5 |
| 20260506132528 | 20 | 135 | 8.0 | 14.5 | 0.00 | 0.00 | 0.00 | 40 | 1011.6 |
| 20260506132029 | 20 | 151 | 9.7 | 14.5 | 0.00 | 0.00 | 0.00 | 40 | 1011.8 |
| 20260506131529 | 20 | 161 | 6.4 | 14.5 | 0.00 | 0.00 | 0.00 | 41 | 1011.7 |
| 20260506131028 | 20 | 172 | 9.7 | 14.5 | 0.00 | 0.00 | 0.00 | 41 | 1011.8 |
| 20260506130528 | 20 | 157 | 4.8 | 17.7 | 0.00 | 0.00 | 0.00 | 41 | 1011.9 |
| 20260506130029 | 20 | 118 | 6.4 | 17.7 | 0.00 | 0.00 | 0.00 | 40 | 1011.9 |
| 20260506125528 | 20 | 147 | 6.4 | 17.7 | 0.00 | 0.00 | 0.00 | 40 | 1011.9 |
| 20260506125028 | 20 | 110 | 11.3 | 17.7 | 0.00 | 0.00 | 0.00 | 40 | 1011.8 |
| 20260506124528 | 20 | 118 | 1.6 | 9.7 | 0.00 | 0.00 | 0.00 | 39 | 1011.8 |
| 20260506124027 | 20 | 157 | 1.6 | 9.7 | 0.00 | 0.00 | 0.00 | 44 | 1011.9 |
| 20260506123528 | 20 | 93 | 3.2 | 16.1 | 0.00 | 0.00 | 0.00 | 41 | 1012.0 |
| 20260506123028 | 20 | 113 | 3.2 | 16.1 | 0.00 | 0.00 | 0.00 | 43 | 1012.0 |
| 20260506122528 | 20 | 120 | 6.4 | 14.5 | 0.00 | 0.00 | 0.00 | 41 | 1012.0 |
| 20260506122028 | 20 | 114 | 6.4 | 16.1 | 0.00 | 0.00 | 0.00 | 43 | 1012.1 |
| 20260506121527 | 20 | 113 | 9.7 | 16.1 | 0.00 | 0.00 | 0.00 | 42 | 1012.1 |
| 20260506121027 | 20 | 141 | 4.8 | 19.3 | 0.00 | 0.00 | 0.00 | 44 | 1012.1 |
| 20260506120527 | 20 | 106 | 8.0 | 19.3 | 0.00 | 0.00 | 0.00 | 39 | 1012.1 |
| 20260506120030 | 20 | 100 | 6.4 | 17.7 | 0.00 | 0.00 | 0.00 | 40 | 1012.1 |
| 20260506115526 | 20 | 83 | 6.4 | 20.9 | 0.00 | 0.00 | 0.00 | 43 | 1012.1 |
| 20260506115027 | 20 | 89 | 14.5 | 20.9 | 0.00 | 0.00 | 0.00 | 43 | 1012.2 |
| 20260506114526 | 20 | 89 | 6.4 | 19.3 | 0.00 | 0.00 | 0.00 | 40 | 1012.2 |
| 20260506114027 | 20 | 86 | 9.7 | 19.3 | 0.00 | 0.00 | 0.00 | 40 | 1012.2 |
| 20260506113526 | 19 | 99 | 0.0 | 16.1 | 0.00 | 0.00 | 0.00 | 40 | 1012.3 |
| 20260506113026 | 20 | 131 | 6.4 | 19.3 | 0.00 | 0.00 | 0.00 | 41 | 1012.3 |
| 20260506112527 | 20 | 110 | 1.6 | 19.3 | 0.00 | 0.00 | 0.00 | 39 | 1012.4 |
| 20260506112025 | 20 | 96 | 9.7 | 22.5 | 0.00 | 0.00 | 0.00 | 44 | 1012.5 |
| 20260506111525 | 20 | 90 | 12.9 | 22.5 | 0.00 | 0.00 | 0.00 | 42 | 1012.5 |
| 20260506111025 | 20 | 114 | 6.4 | 17.7 | 0.00 | 0.00 | 0.00 | 45 | 1012.5 |
| 20260506110526 | 19 | 124 | 11.3 | 17.7 | 0.00 | 0.00 | 0.00 | 41 | 1012.6 |
| 20260506110026 | 19 | 133 | 4.8 | 16.1 | 0.00 | 0.00 | 0.00 | 46 | 1012.8 |
| 20260506105527 | 19 | 113 | 6.4 | 19.3 | 0.00 | 0.00 | 0.00 | 40 | 1012.9 |
| 20260506105025 | 19 | 104 | 6.4 | 19.3 | 0.00 | 0.00 | 0.00 | 42 | 1012.9 |
| 20260506104526 | 20 | 118 | 9.7 | 22.5 | 0.00 | 0.00 | 0.00 | 40 | 1012.8 |
| 20260506104026 | 20 | 110 | 14.5 | 22.5 | 0.00 | 0.00 | 0.00 | 41 | 1013.0 |
| 20260506103525 | 20 | 86 | 4.8 | 14.5 | 0.00 | 0.00 | 0.00 | 41 | 1013.1 |
| 20260506103025 | 20 | 111 | 6.4 | 17.7 | 0.00 | 0.00 | 0.00 | 44 | 1013.2 |
| 20260506102524 | 19 | 92 | 6.4 | 17.7 | 0.00 | 0.00 | 0.00 | 43 | 1013.3 |
| 20260506102024 | 19 | 102 | 8.0 | 19.3 | 0.00 | 0.00 | 0.00 | 43 | 1013.3 |
| 20260506101525 | 19 | 92 | 9.7 | 19.3 | 0.00 | 0.00 | 0.00 | 42 | 1013.5 |
| 20260506101024 | 19 | 120 | 1.6 | 16.1 | 0.00 | 0.00 | 0.00 | 41 | 1013.6 |
| 20260506100524 | 20 | 92 | 9.7 | 14.5 | 0.00 | 0.00 | 0.00 | 41 | 1013.6 |
| 20260506100026 | 19 | 52 | 1.6 | 20.9 | 0.00 | 0.00 | 0.00 | 40 | 1013.5 |
| 20260506095523 | 19 | 89 | 9.7 | 20.9 | 0.00 | 0.00 | 0.00 | 41 | 1013.6 |
| 20260506095023 | 19 | 100 | 8.0 | 16.1 | 0.00 | 0.00 | 0.00 | 42 | 1013.6 |
| 20260506094523 | 18 | 121 | 8.0 | 14.5 | 0.00 | 0.00 | 0.00 | 42 | 1013.8 |
| 20260506094024 | 18 | 135 | 9.7 | 16.1 | 0.00 | 0.00 | 0.00 | 42 | 1013.8 |
| 20260506093523 | 18 | 110 | 9.7 | 19.3 | 0.00 | 0.00 | 0.00 | 47 | 1013.9 |
| 20260506093024 | 18 | 113 | 9.7 | 19.3 | 0.00 | 0.00 | 0.00 | 50 | 1014.0 |
| 20260506092524 | 18 | 68 | 6.4 | 16.1 | 0.00 | 0.00 | 0.00 | 52 | 1014.2 |
| 20260506092025 | 17 | 94 | 9.7 | 16.1 | 0.00 | 0.00 | 0.00 | 52 | 1014.0 |
| 20260506091524 | 17 | 73 | 6.4 | 16.1 | 0.00 | 0.00 | 0.00 | 51 | 1014.0 |
| 20260506091024 | 16 | 124 | 6.4 | 14.5 | 0.00 | 0.00 | 0.00 | 54 | 1014.0 |
| 20260506090523 | 16 | 130 | 4.8 | 11.3 | 0.00 | 0.00 | 0.00 | 67 | 1014.0 |
| 20260506090023 | 15 | 99 | 4.8 | 11.3 | 0.00 | 0.00 | 0.00 | 68 | 1014.2 |
| 20260506085523 | 15 | 135 | 8.0 | 11.3 | 0.00 | 0.00 | 0.00 | 69 | 1014.2 |
| 20260506085023 | 14 | 113 | 8.0 | 14.5 | 0.00 | 0.00 | 0.00 | 71 | 1014.3 |
| 20260506084523 | 14 | 130 | 9.7 | 16.1 | 0.00 | 0.00 | 0.00 | 72 | 1014.3 |
| 20260506084023 | 13 | 120 | 9.7 | 16.1 | 0.00 | 0.00 | 0.00 | 71 | 1014.3 |
| 20260506083523 | 13 | 113 | 11.3 | 14.5 | 0.00 | 0.00 | 0.00 | 73 | 1014.4 |
| 20260506083023 | 13 | 135 | 6.4 | 11.3 | 0.00 | 0.00 | 0.00 | 72 | 1014.5 |
| 20260506082523 | 12 | 120 | 8.0 | 11.3 | 0.00 | 0.00 | 0.00 | 72 | 1014.5 |
| 20260506082022 | 13 | 118 | 6.4 | 9.7 | 0.00 | 0.00 | 0.00 | 73 | 1014.4 |
| 20260506081522 | 12 | 114 | 6.4 | 9.7 | 0.00 | 0.00 | 0.00 | 73 | 1014.6 |
| 20260506081022 | 12 | 99 | 6.4 | 9.7 | 0.00 | 0.00 | 0.00 | 73 | 1014.6 |
| 20260506080523 | 12 | 109 | 6.4 | 11.3 | 0.00 | 0.00 | 0.00 | 74 | 1014.7 |
| 20260506073522 | 11 | 106 | 4.8 | 8.0 | 0.00 | 0.00 | 0.00 | 74 | 1015.0 |
| 20260506073021 | 11 | 121 | 4.8 | 6.4 | 0.00 | 0.00 | 0.00 | 75 | 1015.0 |
| 20260506072521 | 11 | 117 | 3.2 | 8.0 | 0.00 | 0.00 | 0.00 | 75 | 1015.0 |
| 20260506072021 | 11 | 103 | 4.8 | 8.0 | 0.00 | 0.00 | 0.00 | 75 | 1015.0 |
| 20260506071522 | 11 | 141 | 4.8 | 8.0 | 0.00 | 0.00 | 0.00 | 75 | 1015.2 |
| 20260506071021 | 11 | 135 | 4.8 | 9.7 | 0.00 | 0.00 | 0.00 | 75 | 1015.3 |
| 20260506070523 | 11 | 125 | 3.2 | 9.7 | 0.00 | 0.00 | 0.00 | 74 | 1015.3 |
| 20260506062020 | 8 | 154 | 0.0 | 0.0 | 0.00 | 0.00 | 0.00 | 49 | 1016.0 |
| 20260506061520 | 7 | 268 | 0.0 | 0.0 | 0.00 | 0.00 | 0.00 | 45 | 1016.1 |